Powrót do katalogu

STARLINK-31140

AktywnyŁącznośćVLEO
NORAD 58767·PAYLOAD·🇺🇸 United States

Wystrzelony Jan 14, 2024 z Vandenberg Space Force Base

Loading…

Następne Przeloty (najbliższe 24 godziny)

TLE

ŚwieżeSource: CelesTrak SupGP

Epoka: Sep 14, 2026, 21:48 UTC

1 58767C 24011C   26257.90881944  .00017218  00000+0  50817-3 0  2575
2 58767  53.1585 211.9006 0001416  96.5589 172.7442 15.34415738    14

Śledź STARLINK-31140 w czasie rzeczywistym z AllMySat

Download on the App Store